#Datum;Uhrzeit;WR;Pac;DaySum;Status;WR;Pac;DaySum;Status;Pdc1;Udc;Temp;WR;Pac;DaySum;Status;Pdc1;Udc;Temp;WR;Pac;DaySum;Status;Pdc1;Udc;Temp;WR;Pac;DaySum;Status;Pdc1;Pdc2;Udc1;Udc2;Temp;WR;Pac;DaySum;Status;Pdc1;Pdc2;Udc1;Udc2;Temp;WR;Pac;DaySum;Status;Pdc1;Udc;Temp;WR;Pac;DaySum;Status;Pdc1;Udc;Temp;WR;Pac;DaySum;Status;Pdc1;Udc;Temp
07.01.21;23:55:00;1;426;15741;0;2;0;10;0;0;0;0;3;0;2;0;0;0;0;4;0;3;0;0;0;0;5;0;0;0;0;0;0;0;0;6;0;26;0;0;0;0;0;0;7;0;2165;0;0;0;0;8;0;2729;0;0;0;0;9;0;1815;0;0;0;0
07.01.21;23:50:00;1;726;15706;0;2;0;10;0;0;0;0;3;0;2;0;0;0;0;4;0;3;0;0;0;0;5;0;0;0;0;0;0;0;0;6;0;26;0;0;0;0;0;0;7;0;2165;0;0;0;0;8;0;2729;0;0;0;0;9;0;1815;0;0;0;0
07.01.21;23:45:00;1;434;15639;0;2;0;10;0;0;0;0;3;0;2;0;0;0;0;4;0;3;0;0;0;0;5;0;0;0;0;0;0;0;0;6;0;26;0;0;0;0;0;0;7;0;2165;0;0;0;0;8;0;2729;0;0;0;0;9;0;1815;0;0;0;0
07.01.21;23:40:00;1;477;15604;0;2;0;10;0;0;0;0;3;0;2;0;0;0;0;4;0;3;0;0;0;0;5;0;0;0;0;0;0;0;0;6;0;26;0;0;0;0;0;0;7;0;2165;0;0;0;0;8;0;2729;0;0;0;0;9;0;1815;0;0;0;0
07.01.21;23:35:00;1;443;15564;0;2;0;10;0;0;0;0;3;0;2;0;0;0;0;4;0;3;0;0;0;0;5;0;0;0;0;0;0;0;0;6;0;26;0;0;0;0;0;0;7;0;2165;0;0;0;0;8;0;2729;0;0;0;0;9;0;1815;0;0;0;0
07.01.21;23:30:00;1;384;15526;0;2;0;10;0;0;0;0;3;0;2;0;0;0;0;4;0;3;0;0;0;0;5;0;0;0;0;0;0;0;0;6;0;26;0;0;0;0;0;0;7;0;2165;0;0;0;0;8;0;2729;0;0;0;0;9;0;1815;0;0;0;0
07.01.21;23:25:00;1;413;15493;0;2;0;10;0;0;0;0;3;0;2;0;0;0;0;4;0;3;0;0;0;0;5;0;0;0;0;0;0;0;0;6;0;26;0;0;0;0;0;0;7;0;2165;0;0;0;0;8;0;2729;0;0;0;0;9;0;1815;0;0;0;0
07.01.21;23:20:00;1;561;15459;0;2;0;10;0;0;0;0;3;0;2;0;0;0;0;4;0;3;0;0;0;0;5;0;0;0;0;0;0;0;0;6;0;26;0;0;0;0;0;0;7;0;2165;0;0;0;0;8;0;2729;0;0;0;0;9;0;1815;0;0;0;0
07.01.21;23:15:00;1;936;15392;0;2;0;10;0;0;0;0;3;0;2;0;0;0;0;4;0;3;0;0;0;0;5;0;0;0;0;0;0;0;0;6;0;26;0;0;0;0;0;0;7;0;2165;0;0;0;0;8;0;2729;0;0;0;0;9;0;1815;0;0;0;0
07.01.21;23:10:00;1;467;15317;0;2;0;10;0;0;0;0;3;0;2;0;0;0;0;4;0;3;0;0;0;0;5;0;0;0;0;0;0;0;0;6;0;26;0;0;0;0;0;0;7;0;2165;0;0;0;0;8;0;2729;0;0;0;0;9;0;1815;0;0;0;0
07.01.21;23:05:00;1;520;15280;0;2;0;10;0;0;0;0;3;0;2;0;0;0;0;4;0;3;0;0;0;0;5;0;0;0;0;0;0;0;0;6;0;26;0;0;0;0;0;0;7;0;2165;0;0;0;0;8;0;2729;0;0;0;0;9;0;1815;0;0;0;0
07.01.21;23:00:00;1;527;15235;0;2;0;10;0;0;0;0;3;0;2;0;0;0;0;4;0;3;0;0;0;0;5;0;0;0;0;0;0;0;0;6;0;26;0;0;0;0;0;0;7;0;2165;0;0;0;0;8;0;2729;0;0;0;0;9;0;1815;0;0;0;0
07.01.21;22:55:00;1;605;15191;0;2;0;10;0;0;0;0;3;0;2;0;0;0;0;4;0;3;0;0;0;0;5;0;0;0;0;0;0;0;0;6;0;26;2;0;0;0;0;0;7;0;2165;0;0;0;0;8;0;2729;0;0;0;0;9;0;1815;0;0;0;0
07.01.21;22:50:00;1;622;15124;0;2;0;10;0;0;0;0;3;0;2;0;0;0;0;4;0;3;0;0;0;0;5;0;0;0;0;0;0;0;0;6;0;26;2;0;0;0;0;0;7;0;2165;0;0;0;0;8;0;2729;0;0;0;0;9;0;1815;0;0;0;0
07.01.21;22:45:00;1;568;15069;0;2;0;10;0;0;0;0;3;0;2;0;0;0;0;4;0;3;0;0;0;0;5;0;0;0;0;0;0;0;0;6;0;26;2;0;0;0;0;0;7;0;2165;0;0;0;0;8;0;2729;0;0;0;0;9;0;1815;0;0;0;0
07.01.21;22:40:00;1;654;15022;0;2;0;10;0;0;0;0;3;0;2;0;0;0;0;4;0;3;0;0;0;0;5;0;0;0;0;0;0;0;0;6;0;26;2;0;0;0;0;0;7;0;2165;0;0;0;0;8;0;2729;0;0;0;0;9;0;1815;0;0;0;0
07.01.21;22:35:00;1;665;14968;0;2;0;10;0;0;0;0;3;0;2;0;0;0;0;4;0;3;0;0;0;0;5;0;0;0;0;0;0;0;0;6;0;26;2;0;0;0;0;0;7;0;2165;0;0;0;0;8;0;2729;0;0;0;0;9;0;1815;0;0;0;0
07.01.21;22:30:00;1;711;14913;0;2;0;10;0;0;0;0;3;0;2;0;0;0;0;4;0;3;0;0;0;0;5;0;0;0;0;0;0;0;0;6;0;26;2;0;0;0;0;0;7;0;2165;0;0;0;0;8;0;2729;0;0;0;0;9;0;1815;0;0;0;0
07.01.21;22:25:00;1;1163;14854;0;2;0;10;0;0;0;0;3;0;2;0;0;0;0;4;0;3;0;0;0;0;5;0;0;0;0;0;0;0;0;6;0;26;2;0;0;0;0;0;7;0;2165;0;0;0;0;8;0;2729;0;0;0;0;9;0;1815;0;0;0;0
07.01.21;22:20:00;1;791;14758;0;2;0;10;0;0;0;0;3;0;2;0;0;0;0;4;0;3;0;0;0;0;5;0;0;0;0;0;0;0;0;6;0;26;2;0;0;0;0;0;7;0;2165;0;0;0;0;8;0;2729;0;0;0;0;9;0;1815;0;0;0;0
07.01.21;22:15:00;1;796;14692;0;2;0;10;0;0;0;0;3;0;2;0;0;0;0;4;0;3;0;0;0;0;5;0;0;0;0;0;0;0;0;6;0;26;2;0;0;0;0;0;7;0;2165;0;0;0;0;8;0;2729;0;0;0;0;9;0;1815;0;0;0;0
07.01.21;22:10:00;1;822;14624;0;2;0;10;0;0;0;0;3;0;2;0;0;0;0;4;0;3;0;0;0;0;5;0;0;0;0;0;0;0;0;6;0;26;2;0;0;0;0;0;7;0;2165;0;0;0;0;8;0;2729;0;0;0;0;9;0;1815;0;0;0;0
07.01.21;22:05:00;1;755;14554;0;2;0;10;0;0;0;0;3;0;2;0;0;0;0;4;0;3;0;0;0;0;5;0;0;0;0;0;0;0;0;6;0;26;2;0;0;0;0;0;7;0;2165;0;0;0;0;8;0;2729;0;0;0;0;9;0;1815;0;0;0;0
07.01.21;22:00:00;1;772;14491;0;2;0;10;0;0;0;0;3;0;2;0;0;0;0;4;0;3;0;0;0;0;5;0;0;0;0;0;0;0;0;6;0;26;2;0;0;0;0;0;7;0;2165;0;0;0;0;8;0;2729;0;0;0;0;9;0;1815;0;0;0;0
07.01.21;21:55:00;1;997;14427;0;2;0;10;0;0;0;0;3;0;2;0;0;0;0;4;0;3;0;0;0;0;5;0;0;0;0;0;0;0;0;6;0;26;2;0;0;0;0;0;7;0;2165;0;0;0;0;8;0;2729;0;0;0;0;9;0;1815;0;0;0;0
07.01.21;21:50:00;1;792;14331;0;2;0;10;0;0;0;0;3;0;2;0;0;0;0;4;0;3;0;0;0;0;5;0;0;0;0;0;0;0;0;6;0;26;2;0;0;0;0;0;7;0;2165;0;0;0;0;8;0;2729;0;0;0;0;9;0;1815;0;0;0;0
07.01.21;21:45:00;1;819;14264;0;2;0;10;0;0;0;0;3;0;2;0;0;0;0;4;0;3;0;0;0;0;5;0;0;0;0;0;0;0;0;6;0;26;2;0;0;0;0;0;7;0;2165;0;0;0;0;8;0;2729;0;0;0;0;9;0;1815;0;0;0;0
07.01.21;21:40:00;1;790;14195;0;2;0;10;0;0;0;0;3;0;2;0;0;0;0;4;0;3;0;0;0;0;5;0;0;0;0;0;0;0;0;6;0;26;2;0;0;0;0;0;7;0;2165;0;0;0;0;8;0;2729;0;0;0;0;9;0;1815;0;0;0;0
07.01.21;21:35:00;1;833;14130;0;2;0;10;0;0;0;0;3;0;2;0;0;0;0;4;0;3;0;0;0;0;5;0;0;0;0;0;0;0;0;6;0;26;2;0;0;0;0;0;7;0;2165;0;0;0;0;8;0;2729;0;0;0;0;9;0;1815;0;0;0;0
07.01.21;21:30:00;1;853;14061;0;2;0;10;0;0;0;0;3;0;2;0;0;0;0;4;0;3;0;0;0;0;5;0;0;0;0;0;0;0;0;6;0;26;2;0;0;0;0;0;7;0;2165;0;0;0;0;8;0;2729;0;0;0;0;9;0;1815;0;0;0;0
07.01.21;21:25:00;1;912;13990;0;2;0;10;0;0;0;0;3;0;2;0;0;0;0;4;0;3;0;0;0;0;5;0;0;0;0;0;0;0;0;6;0;26;2;0;0;0;0;0;7;0;2165;0;0;0;0;8;0;2729;0;0;0;0;9;0;1815;0;0;0;0
07.01.21;21:20:00;1;1502;13887;0;2;0;10;0;0;0;0;3;0;2;0;0;0;0;4;0;3;0;0;0;0;5;0;0;0;0;0;0;0;0;6;0;26;2;0;0;0;0;0;7;0;2165;0;0;0;0;8;0;2729;0;0;0;0;9;0;1815;0;0;0;0
07.01.21;21:15:00;1;2688;13778;0;2;0;10;0;0;0;0;3;0;2;0;0;0;0;4;0;3;0;0;0;0;5;0;0;0;0;0;0;0;0;6;0;26;2;0;0;0;0;0;7;0;2165;0;0;0;0;8;0;2729;0;0;0;0;9;0;1815;0;0;0;0
07.01.21;21:10:00;1;2711;13554;0;2;0;10;0;0;0;0;3;0;2;0;0;0;0;4;0;3;0;0;0;0;5;0;0;0;0;0;0;0;0;6;0;26;2;0;0;0;0;0;7;0;2165;0;0;0;0;8;0;2729;0;0;0;0;9;0;1815;0;0;0;0
07.01.21;21:05:00;1;3002;13323;0;2;0;10;0;0;0;0;3;0;2;0;0;0;0;4;0;3;0;0;0;0;5;0;0;0;0;0;0;0;0;6;0;26;2;0;0;0;0;0;7;0;2165;0;0;0;0;8;0;2729;0;0;0;0;9;0;1815;0;0;0;0
07.01.21;21:00:00;1;2294;13066;0;2;0;10;0;0;0;0;3;0;2;0;0;0;0;4;0;3;0;0;0;0;5;0;0;0;0;0;0;0;0;6;0;26;2;0;0;0;0;0;7;0;2165;0;0;0;0;8;0;2729;0;0;0;0;9;0;1815;0;0;0;0
07.01.21;20:55:00;1;1322;12876;0;2;0;10;0;0;0;0;3;0;2;0;0;0;0;4;0;3;0;0;0;0;5;0;0;0;0;0;0;0;0;6;0;26;2;0;0;0;0;0;7;0;2165;0;0;0;0;8;0;2729;0;0;0;0;9;0;1815;0;0;0;0
07.01.21;20:50:00;1;910;12771;0;2;0;10;0;0;0;0;3;0;2;0;0;0;0;4;0;3;0;0;0;0;5;0;0;0;0;0;0;0;0;6;0;26;2;0;0;0;0;0;7;0;2165;0;0;0;0;8;0;2729;0;0;0;0;9;0;1815;0;0;0;0
07.01.21;20:45:00;1;1000;12692;0;2;0;10;0;0;0;0;3;0;2;0;0;0;0;4;0;3;0;0;0;0;5;0;0;0;0;0;0;0;0;6;0;26;2;0;0;0;0;0;7;0;2165;0;0;0;0;8;0;2729;0;0;0;0;9;0;1815;0;0;0;0
07.01.21;20:40:00;1;918;12610;0;2;0;10;0;0;0;0;3;0;2;0;0;0;0;4;0;3;0;0;0;0;5;0;0;0;0;0;0;0;0;6;0;26;2;0;0;0;0;0;7;0;2165;0;0;0;0;8;0;2729;0;0;0;0;9;0;1815;0;0;0;0
07.01.21;20:35:00;1;1145;12531;0;2;0;10;0;0;0;0;3;0;2;0;0;0;0;4;0;3;0;0;0;0;5;0;0;0;0;0;0;0;0;6;0;26;2;0;0;0;0;0;7;0;2165;0;0;0;0;8;0;2729;0;0;0;0;9;0;1815;0;0;0;0
07.01.21;20:30:00;1;1459;12443;0;2;0;10;0;0;0;0;3;0;2;0;0;0;0;4;0;3;0;0;0;0;5;0;0;0;0;0;0;0;0;6;0;26;2;0;0;0;0;0;7;0;2165;0;0;0;0;8;0;2729;0;0;0;0;9;0;1815;0;0;0;0
07.01.21;20:25:00;1;2732;12336;0;2;0;10;0;0;0;0;3;0;2;0;0;0;0;4;0;3;0;0;0;0;5;0;0;0;0;0;0;0;0;6;0;26;2;0;0;0;0;0;7;0;2165;0;0;0;0;8;0;2729;0;0;0;0;9;0;1815;0;0;0;0
07.01.21;20:20:00;1;2668;12076;0;2;0;10;0;0;0;0;3;0;2;0;0;0;0;4;0;3;0;0;0;0;5;0;0;0;0;0;0;0;0;6;0;26;2;0;0;0;0;0;7;0;2165;0;0;0;0;8;0;2729;0;0;0;0;9;0;1815;0;0;0;0
07.01.21;20:15:00;1;1649;11854;0;2;0;10;0;0;0;0;3;0;2;0;0;0;0;4;0;3;0;0;0;0;5;0;0;0;0;0;0;0;0;6;0;26;2;0;0;0;0;0;7;0;2165;0;0;0;0;8;0;2729;0;0;0;0;9;0;1815;0;0;0;0
07.01.21;20:10:00;1;963;11691;0;2;0;10;0;0;0;0;3;0;2;0;0;0;0;4;0;3;0;0;0;0;5;0;0;0;0;0;0;0;0;6;0;26;2;0;0;0;0;0;7;0;2165;0;0;0;0;8;0;2729;0;0;0;0;9;0;1815;0;0;0;0
07.01.21;20:05:00;1;952;11610;0;2;0;10;0;0;0;0;3;0;2;0;0;0;0;4;0;3;0;0;0;0;5;0;0;0;0;0;0;0;0;6;0;26;2;0;0;0;0;0;7;0;2165;0;0;0;0;8;0;2729;0;0;0;0;9;0;1815;0;0;0;0
07.01.21;20:00:00;1;1153;11529;0;2;0;10;0;0;0;0;3;0;2;0;0;0;0;4;0;3;0;0;0;0;5;0;0;0;0;0;0;0;0;6;0;26;2;0;0;0;0;0;7;0;2165;0;0;0;0;8;0;2729;0;0;0;0;9;0;1815;0;0;0;0
07.01.21;19:55:00;1;848;11427;0;2;0;10;0;0;0;0;3;0;2;0;0;0;0;4;0;3;0;0;0;0;5;0;0;0;0;0;0;0;0;6;0;26;2;0;0;0;0;0;7;0;2165;0;0;0;0;8;0;2729;0;0;0;0;9;0;1815;0;0;0;0
07.01.21;19:50:00;1;832;11355;0;2;0;10;0;0;0;0;3;0;2;0;0;0;0;4;0;3;0;0;0;0;5;0;0;0;0;0;0;0;0;6;0;26;2;0;0;0;0;0;7;0;2165;0;0;0;0;8;0;2729;0;0;0;0;9;0;1815;0;0;0;0
07.01.21;19:45:00;1;960;11285;0;2;0;10;0;0;0;0;3;0;2;0;0;0;0;4;0;3;0;0;0;0;5;0;0;0;0;0;0;0;0;6;0;26;2;0;0;0;0;0;7;0;2165;0;0;0;0;8;0;2729;0;0;0;0;9;0;1815;0;0;0;0
07.01.21;19:40:00;1;906;11206;0;2;0;10;0;0;0;0;3;0;2;0;0;0;0;4;0;3;0;0;0;0;5;0;0;0;0;0;0;0;0;6;0;26;2;0;0;0;0;0;7;0;2165;0;0;0;0;8;0;2729;0;0;0;0;9;0;1815;0;0;0;0
07.01.21;19:35:00;1;904;11130;0;2;0;10;0;0;0;0;3;0;2;0;0;0;0;4;0;3;0;0;0;0;5;0;0;0;0;0;0;0;0;6;0;26;0;0;0;0;0;0;7;0;2165;0;0;0;0;8;0;2729;0;0;0;0;9;0;1815;0;0;0;0
07.01.21;19:30:00;1;1127;11054;0;2;0;10;0;0;0;0;3;0;2;0;0;0;0;4;0;3;0;0;0;0;5;0;0;0;0;0;0;0;0;6;0;26;2;0;0;0;0;0;7;0;2165;0;0;0;0;8;0;2729;0;0;0;0;9;0;1815;0;0;0;0
07.01.21;19:25:00;1;1195;10966;0;2;0;10;0;0;0;0;3;0;2;0;0;0;0;4;0;3;0;0;0;0;5;0;0;0;0;0;0;0;0;6;0;26;2;0;0;0;0;0;7;0;2165;0;0;0;0;8;0;2729;0;0;0;0;9;0;1815;0;0;0;0
07.01.21;19:20:00;1;685;10863;0;2;0;10;0;0;0;0;3;0;2;0;0;0;0;4;0;3;0;0;0;0;5;0;0;0;0;0;0;0;0;6;0;26;2;0;0;0;0;0;7;0;2165;0;0;0;0;8;0;2729;0;0;0;0;9;0;1815;0;0;0;0
07.01.21;19:15:00;1;678;10806;0;2;0;10;0;0;0;0;3;0;2;0;0;0;0;4;0;3;0;0;0;0;5;0;0;0;0;0;0;0;0;6;0;26;2;0;0;0;0;0;7;0;2165;0;0;0;0;8;0;2729;0;0;0;0;9;0;1815;0;0;0;0
07.01.21;19:10:00;1;752;10747;0;2;0;10;0;0;0;0;3;0;2;0;0;0;0;4;0;3;0;0;0;0;5;0;0;0;0;0;0;0;0;6;0;26;2;0;0;0;0;0;7;0;2165;0;0;0;0;8;0;2729;0;0;0;0;9;0;1815;0;0;0;0
07.01.21;19:05:00;1;1103;10685;0;2;0;10;0;0;0;0;3;0;2;0;0;0;0;4;0;3;0;0;0;0;5;0;0;0;0;0;0;0;0;6;0;26;2;0;0;0;0;0;7;0;2165;0;0;0;0;8;0;2729;0;0;0;0;9;0;1815;0;0;0;0
07.01.21;19:00:00;1;1089;10593;0;2;0;10;0;0;0;0;3;0;2;0;0;0;0;4;0;3;0;0;0;0;5;0;0;0;0;0;0;0;0;6;0;26;2;0;0;0;0;0;7;0;2165;0;0;0;0;8;0;2729;0;0;0;0;9;0;1815;0;0;0;0
07.01.21;18:55:00;1;1447;10502;0;2;0;10;0;0;0;0;3;0;2;0;0;0;0;4;0;3;0;0;0;0;5;0;0;0;0;0;0;0;0;6;0;26;2;0;0;0;0;0;7;0;2165;0;0;0;0;8;0;2729;0;0;0;0;9;0;1815;0;0;0;0
07.01.21;18:50:00;1;1058;10383;0;2;0;10;0;0;0;0;3;0;2;0;0;0;0;4;0;3;0;0;0;0;5;0;0;0;0;0;0;0;0;6;0;26;2;0;0;0;0;0;7;0;2165;0;0;0;0;8;0;2729;0;0;0;0;9;0;1815;0;0;0;0
07.01.21;18:45:00;1;1118;10295;0;2;0;10;0;0;0;0;3;0;2;0;0;0;0;4;0;3;0;0;0;0;5;0;0;0;0;0;0;0;0;6;0;26;2;0;0;0;0;0;7;0;2165;0;0;0;0;8;0;2729;0;0;0;0;9;0;1815;0;0;0;0
07.01.21;18:40:00;1;1126;10201;0;2;0;10;0;0;0;0;3;0;2;0;0;0;0;4;0;3;0;0;0;0;5;0;0;0;0;0;0;0;0;6;0;26;2;0;0;0;0;0;7;0;2165;0;0;0;0;8;0;2729;0;0;0;0;9;0;1815;0;0;0;0
07.01.21;18:35:00;1;1087;10106;0;2;0;10;0;0;0;0;3;0;2;0;0;0;0;4;0;3;0;0;0;0;5;0;0;0;0;0;0;0;0;6;0;26;2;0;0;0;0;0;7;0;2165;0;0;0;0;8;0;2729;0;0;0;0;9;0;1815;0;0;0;0
07.01.21;18:30:00;1;1062;10014;0;2;0;10;0;0;0;0;3;0;2;0;0;0;0;4;0;3;0;0;0;0;5;0;0;0;0;0;0;0;0;6;0;26;2;0;0;0;0;0;7;0;2165;0;0;0;0;8;0;2729;0;0;0;0;9;0;1815;0;0;0;0
07.01.21;18:25:00;1;1086;9925;0;2;0;10;0;0;0;0;3;0;2;0;0;0;0;4;0;3;0;0;0;0;5;0;0;0;0;0;0;0;0;6;0;26;2;0;0;0;0;0;7;0;2165;0;0;0;0;8;0;2729;0;0;0;0;9;0;1815;0;0;0;0
07.01.21;18:20:00;1;1451;9833;0;2;0;10;0;0;0;0;3;0;2;0;0;0;0;4;0;3;0;0;0;0;5;0;0;0;0;0;0;0;0;6;0;26;2;0;0;0;0;0;7;0;2165;0;0;0;0;8;0;2729;0;0;0;0;9;0;1815;0;0;0;0
07.01.21;18:15:00;1;1098;9705;0;2;0;10;0;0;0;0;3;0;2;0;0;0;0;4;0;3;0;0;0;0;5;0;0;0;0;0;0;0;0;6;0;26;2;0;0;0;0;0;7;0;2165;0;0;0;0;8;0;2729;0;0;0;0;9;0;1815;0;0;0;0
07.01.21;18:10:00;1;1036;9611;0;2;0;10;0;0;0;0;3;0;2;0;0;0;0;4;0;3;0;0;0;0;5;0;0;0;0;0;0;0;0;6;0;26;2;0;0;0;0;0;7;0;2165;0;0;0;0;8;0;2729;0;0;0;0;9;0;1815;0;0;0;0
07.01.21;18:05:00;1;1038;9525;0;2;0;10;0;0;0;0;3;0;2;0;0;0;0;4;0;3;0;0;0;0;5;0;0;0;0;0;0;0;0;6;0;26;2;0;0;0;0;0;7;0;2165;0;0;0;0;8;0;2729;0;0;0;0;9;0;1815;0;0;0;0
07.01.21;18:00:00;1;1029;9438;0;2;0;10;0;0;0;0;3;0;2;0;0;0;0;4;0;3;0;0;0;0;5;0;0;0;0;0;0;0;0;6;0;26;2;0;0;0;0;0;7;0;2165;0;0;0;0;8;0;2729;0;0;0;0;9;0;1815;0;0;0;0
07.01.21;17:55:00;1;1046;9352;0;2;0;10;0;0;0;0;3;0;2;0;0;0;0;4;0;3;0;0;0;0;5;0;0;0;0;0;0;0;0;6;0;26;2;0;0;0;0;0;7;0;2165;0;0;0;0;8;0;2729;0;0;0;0;9;0;1815;0;0;0;0
07.01.21;17:50:00;1;1111;9265;0;2;0;10;0;0;0;0;3;0;2;0;0;0;0;4;0;3;0;0;0;0;5;0;0;0;0;0;0;0;0;6;0;26;2;0;0;0;0;0;7;0;2165;0;0;0;0;8;0;2729;0;0;0;0;9;0;1815;0;0;0;0
07.01.21;17:45:00;1;1501;9172;0;2;0;10;0;0;0;0;3;0;2;0;0;0;0;4;0;3;0;0;0;0;5;0;0;0;0;0;0;0;0;6;0;26;2;0;0;0;0;0;7;0;2165;0;0;0;0;8;0;2729;0;0;0;0;9;0;1815;0;0;0;0
07.01.21;17:40:00;1;1141;9051;0;2;0;10;0;0;0;0;3;0;2;0;0;0;0;4;0;3;0;0;0;0;5;0;0;0;0;0;0;0;0;6;0;26;2;0;0;0;0;0;7;0;2165;0;0;0;0;8;0;2729;0;0;0;0;9;0;1815;0;0;0;0
07.01.21;17:35:00;1;1123;8956;0;2;0;10;0;0;0;0;3;0;2;0;0;0;0;4;0;3;0;0;0;0;5;0;0;0;0;0;0;0;0;6;0;26;2;0;0;0;0;0;7;0;2165;0;0;0;0;8;0;2729;0;0;0;0;9;0;1815;0;0;0;0
07.01.21;17:30:00;1;1190;8861;0;2;0;10;0;0;0;0;3;0;2;0;0;0;0;4;0;3;0;0;0;0;5;0;0;0;0;0;0;0;0;6;0;26;2;0;0;0;0;0;7;0;2165;0;0;0;0;8;0;2729;0;0;0;0;9;0;1815;0;0;0;0
07.01.21;17:25:00;1;1114;8761;0;2;0;10;0;0;0;0;3;0;2;0;0;0;0;4;0;3;0;0;0;0;5;0;0;0;0;0;0;0;0;6;0;26;2;0;0;0;0;0;7;0;2165;0;0;0;0;8;0;2729;0;0;0;0;9;0;1815;0;0;0;0
07.01.21;17:20:00;1;1127;8668;0;2;0;10;0;0;0;0;3;0;2;0;0;0;0;4;0;3;0;0;0;0;5;0;0;0;0;0;0;0;0;6;0;26;2;0;0;0;0;0;7;0;2165;0;0;0;0;8;0;2729;0;0;0;0;9;0;1815;0;0;0;0
07.01.21;17:15:00;1;1135;8574;0;2;0;10;0;0;0;0;3;0;2;0;0;0;0;4;0;3;0;0;0;0;5;0;0;0;0;0;0;0;0;6;0;26;2;0;0;0;0;0;7;0;2165;0;0;0;0;8;0;2729;0;0;0;0;9;0;1815;0;0;0;0
07.01.21;17:10:00;1;1308;8469;0;2;0;10;0;0;0;0;3;0;2;0;0;0;0;4;0;3;0;0;0;0;5;0;0;0;0;0;0;0;0;6;0;26;2;0;0;0;0;0;7;0;2165;0;0;0;0;8;0;2729;0;0;0;0;9;0;1815;0;0;0;0
07.01.21;17:05:00;1;534;8351;0;2;0;10;0;0;0;0;3;0;2;0;0;0;0;4;0;3;0;0;0;0;5;0;0;0;0;0;0;0;0;6;0;26;2;0;0;0;0;0;7;0;2165;0;0;0;0;8;0;2729;0;0;0;0;9;0;1815;0;0;0;0
07.01.21;17:00:00;1;578;8307;0;2;0;10;0;0;0;0;3;0;2;0;0;0;0;4;0;3;0;0;0;0;5;0;0;0;0;0;0;0;0;6;0;26;2;0;0;0;0;0;7;0;2165;0;0;0;0;8;0;2729;0;0;0;0;9;0;1815;0;0;0;0
07.01.21;16:55:00;1;1662;8259;0;2;0;10;0;0;0;0;3;0;2;0;0;0;0;4;0;3;0;0;0;0;5;0;0;0;0;0;0;0;0;6;0;26;2;0;0;0;0;0;7;0;2165;0;0;0;0;8;0;2729;0;0;0;0;9;0;1815;0;0;0;0
07.01.21;16:50:00;1;535;8147;0;2;0;10;0;0;0;0;3;0;2;0;0;0;0;4;0;3;0;0;0;0;5;0;0;0;0;0;0;0;0;6;0;26;2;0;0;0;0;0;7;0;2165;0;0;0;0;8;0;2729;0;0;0;0;9;0;1815;0;0;0;0
07.01.21;16:45:00;1;525;8103;0;2;0;10;0;0;0;0;3;0;2;0;0;0;0;4;0;3;0;0;0;0;5;0;0;0;0;0;0;0;0;6;0;26;2;0;0;0;0;0;7;0;2165;0;0;0;0;8;0;2729;0;0;35;1;9;0;1815;0;0;110;3
07.01.21;16:40:00;1;377;8061;0;2;0;10;0;0;144;4;3;0;2;0;0;0;0;4;0;3;0;0;0;0;5;0;0;0;0;0;0;0;0;6;0;26;2;0;0;0;0;0;7;0;2165;6;0;279;12;8;0;2729;6;0;287;12;9;0;1815;6;0;301;8
07.01.21;16:35:00;1;370;8030;0;2;0;10;6;0;271;7;3;0;2;0;0;0;0;4;0;3;0;0;0;0;5;0;0;0;0;0;0;0;0;6;0;26;2;0;0;0;0;0;7;0;2165;6;0;331;12;8;0;2729;6;0;340;12;9;0;1815;6;0;354;9
07.01.21;16:30:00;1;790;7999;0;2;0;10;6;0;285;7;3;0;2;0;0;0;0;4;0;3;0;0;44;1;5;0;0;0;0;0;0;0;0;6;0;26;2;0;0;0;0;0;7;0;2165;6;0;372;12;8;0;2729;6;0;382;12;9;0;1815;6;0;404;9
07.01.21;16:25:00;1;621;7937;0;2;0;10;6;0;294;7;3;0;2;0;0;0;0;4;0;3;1;0;84;3;5;0;0;0;0;0;0;0;0;6;0;26;2;0;0;0;0;0;7;0;2165;6;0;391;13;8;0;2729;6;0;401;12;9;0;1815;6;0;427;9
07.01.21;16:20:00;1;537;7886;0;2;0;10;6;0;312;7;3;0;2;0;0;176;6;4;0;3;1;0;104;3;5;0;0;0;0;0;0;0;0;6;0;26;2;0;0;0;0;0;7;0;2165;6;3;417;13;8;0;2729;6;1;439;13;9;1;1815;3;3;454;9
07.01.21;16:15:00;1;510;7843;0;2;0;10;6;0;354;7;3;0;2;6;0;293;10;4;0;3;1;0;131;3;5;0;0;0;0;0;0;0;0;6;0;26;2;0;0;0;0;0;7;22;2165;6;34;452;13;8;15;2729;6;26;458;13;9;7;1815;6;13;510;9
07.01.21;16:10:00;1;436;7803;0;2;0;10;6;0;393;7;3;0;2;6;0;344;10;4;0;3;1;0;163;3;5;0;0;0;0;0;0;0;0;6;0;26;2;0;0;0;0;0;7;147;2163;4;178;462;13;8;126;2728;4;162;463;13;9;34;1814;6;47;543;9
07.01.21;16:05:00;1;466;7765;0;2;0;10;6;0;406;7;3;0;2;6;0;380;10;4;0;3;1;0;176;3;5;0;0;0;0;0;0;0;0;6;0;26;1;0;0;0;0;0;7;227;2151;4;266;483;13;8;186;2717;4;224;483;13;9;93;1811;4;121;489;10
07.01.21;16:00:00;1;686;7725;0;2;0;10;6;0;411;7;3;0;2;6;0;379;10;4;0;3;1;0;175;3;5;0;0;0;0;0;0;0;0;6;0;26;1;0;0;0;0;1;7;239;2132;4;280;500;13;8;164;2702;4;201;485;13;9;35;1804;4;47;542;10
07.01.21;15:55:00;1;720;7668;0;2;0;10;6;0;406;7;3;0;2;6;0;374;10;4;0;3;1;0;170;3;5;0;0;0;0;0;0;0;0;6;0;26;1;0;0;0;0;0;7;168;2112;4;213;482;13;8;109;2688;4;148;460;13;9;8;1801;6;11;570;10
07.01.21;15:50:00;1;587;7610;0;2;0;10;6;0;394;7;3;0;2;6;0;358;10;4;0;3;1;0;165;3;5;0;0;0;0;0;0;0;0;6;0;26;1;0;0;0;0;0;7;92;2099;4;125;436;13;8;86;2679;4;124;439;13;9;11;1800;3;19;550;10
07.01.21;15:45:00;1;493;7563;0;2;0;10;6;0;407;7;3;0;2;6;0;397;10;4;0;3;1;0;177;3;5;0;0;0;0;0;0;0;0;6;0;26;1;0;0;0;0;0;7;111;2091;4;142;421;13;8;111;2672;4;146;441;13;9;10;1799;6;15;578;10
07.01.21;15:40:00;1;460;7522;0;2;0;10;6;0;411;7;3;0;2;6;0;409;10;4;0;3;1;0;181;3;5;0;0;0;0;0;0;0;0;6;0;26;1;0;0;0;0;7;7;136;2082;4;168;399;13;8;143;2663;4;175;423;13;9;73;1798;4;104;498;11
07.01.21;15:35:00;1;448;7483;0;2;0;10;6;0;406;7;3;0;2;6;0;407;10;4;0;3;1;0;186;4;5;0;0;0;0;0;0;0;0;6;0;26;2;0;0;0;0;5;7;156;2071;4;200;451;13;8;168;2651;4;207;455;13;9;86;1792;4;116;495;11
07.01.21;15:30:00;1;473;7445;0;2;0;10;3;0;404;7;3;0;2;6;0;411;10;4;0;3;1;0;186;4;5;0;0;0;0;0;0;0;0;6;0;26;1;1;0;29;44;6;7;146;2057;4;193;475;13;8;161;2637;4;205;462;13;9;86;1784;4;116;504;11
07.01.21;15:25:00;1;497;7406;0;2;0;10;6;0;405;7;3;0;2;4;0;435;10;4;0;3;1;0;189;4;5;0;0;0;0;0;0;0;0;6;0;26;23;5;4;180;464;15;7;193;2045;4;237;459;13;8;208;2623;4;246;457;13;9;108;1777;4;139;515;11
07.01.21;15:20:00;1;646;7354;0;2;0;10;6;0;416;7;3;0;2;3;0;421;10;4;0;3;1;0;203;4;5;0;0;0;0;0;0;0;0;6;0;26;23;6;4;221;504;15;7;278;2029;4;311;468;13;8;266;2605;4;315;485;13;9;149;1768;4;181;511;11
07.01.21;15:15:00;1;412;7296;0;2;0;10;6;0;425;7;3;0;2;6;1;462;10;4;0;3;1;0;218;4;5;0;0;0;0;0;0;0;0;6;0;26;23;5;4;181;557;15;7;411;2005;4;454;475;13;8;409;2583;4;451;493;13;9;220;1755;4;256;526;12
07.01.21;15:10:00;1;430;7261;0;2;2;10;4;4;424;7;3;0;2;6;1;492;10;4;0;3;3;0;213;4;5;0;0;0;0;0;0;0;0;6;0;26;23;4;4;181;584;15;7;757;1970;4;815;481;13;8;786;2548;4;839;489;13;9;421;1736;4;467;534;12
07.01.21;15:05:00;1;1906;7223;0;2;2;10;3;2;442;7;3;0;2;6;2;506;10;4;0;3;3;0;214;4;5;0;0;0;0;0;0;0;0;6;0;26;23;6;3;213;597;15;7;1021;1907;4;1082;466;13;8;1040;2482;4;1102;466;13;9;571;1701;4;629;548;12
07.01.21;15:00:00;1;2198;7047;0;2;2;10;6;3;422;7;3;0;2;6;3;464;10;4;0;3;3;0;210;4;5;0;0;0;0;0;0;0;0;6;0;26;23;5;5;181;574;15;7;642;1822;4;680;450;13;8;650;2396;4;701;460;13;9;372;1653;4;417;541;12
07.01.21;14:55:00;1;2259;6861;0;2;0;9;6;1;430;7;3;0;2;6;1;479;10;4;0;3;3;0;197;4;5;0;0;0;0;0;0;0;0;6;0;26;23;5;4;181;574;15;7;644;1769;4;684;451;13;8;662;2341;4;710;456;13;9;372;1622;4;419;544;12
07.01.21;14:50:00;1;2213;6673;0;2;3;9;6;4;416;7;3;0;2;6;0;479;10;4;0;3;3;0;195;3;5;0;0;0;0;0;0;0;0;6;0;26;23;4;3;250;512;15;7;709;1715;4;756;449;13;8;759;2286;4;807;478;13;9;418;1591;4;466;540;12
07.01.21;14:45:00;1;2194;6489;0;2;0;9;6;1;430;7;3;0;2;3;1;458;10;4;0;3;3;0;217;3;5;0;0;0;0;0;0;0;0;6;0;26;23;7;3;586;181;15;7;636;1656;4;682;450;13;8;699;2223;4;752;485;13;9;376;1557;4;424;542;11
07.01.21;14:40:00;1;2213;6307;0;2;0;9;6;1;416;7;3;0;2;6;1;472;10;4;0;3;1;0;222;3;5;0;0;0;0;0;0;0;0;6;0;26;23;5;4;238;513;15;7;559;1603;4;617;441;13;8;637;2165;4;688;493;13;9;338;1525;4;380;544;11
07.01.21;14:35:00;1;2485;6125;0;2;2;9;3;3;412;7;3;0;2;6;1;469;10;4;0;3;1;0;222;3;5;0;0;0;0;0;0;0;0;6;0;26;23;7;3;584;181;15;7;584;1556;4;624;443;13;8;643;2112;4;697;480;13;9;344;1497;4;388;534;11
07.01.21;14:30:00;1;777;5907;0;2;1;9;6;1;430;7;3;0;2;6;1;480;10;4;0;3;1;0;191;3;5;0;0;0;0;0;0;0;0;6;0;26;23;5;4;181;580;15;7;685;1508;4;733;446;13;8;771;2058;4;821;487;13;9;409;1468;4;456;530;12
07.01.21;14:25:00;1;522;5809;0;2;1;9;6;2;420;7;3;0;2;6;1;484;10;4;0;3;3;0;216;3;5;0;0;0;0;0;0;0;0;6;0;26;23;5;4;181;583;15;7;767;1451;4;820;447;13;8;865;1995;4;924;490;13;9;465;1435;4;515;543;11
07.01.21;14:20:00;1;412;5768;0;2;1;9;6;1;429;7;3;0;2;6;1;481;10;4;0;3;3;0;204;3;5;0;0;0;0;0;0;0;0;6;0;26;23;5;4;251;514;15;7;696;1388;4;745;449;13;8;761;1923;4;812;465;13;9;423;1396;4;471;540;11
07.01.21;14:15:00;1;401;5734;0;2;1;9;6;1;429;7;3;0;2;6;1;462;10;4;0;3;3;0;197;3;5;0;0;0;0;0;0;0;0;6;0;26;23;7;4;595;181;15;7;685;1329;4;740;445;13;8;726;1859;4;782;447;12;9;419;1360;4;469;539;11
07.01.21;14:10:00;1;406;5700;0;2;0;8;6;1;430;7;3;0;2;3;3;457;10;4;0;3;1;0;226;3;5;0;0;0;0;0;0;0;0;6;0;26;23;5;5;212;579;15;7;654;1272;4;697;447;12;8;682;1798;4;736;434;12;9;396;1326;4;443;528;11
07.01.21;14:05:00;1;399;5666;0;2;1;8;4;1;427;7;3;0;2;6;1;460;10;4;0;3;1;0;223;3;5;0;0;0;0;0;0;0;0;6;0;26;23;6;6;181;574;15;7;593;1218;4;637;437;12;8;634;1741;4;683;450;12;9;364;1292;4;407;532;11
07.01.21;14:00:00;1;307;5633;0;2;0;8;6;1;430;7;3;0;2;6;1;482;10;4;0;3;1;0;227;3;5;0;0;0;0;0;0;0;0;6;0;26;23;6;3;593;181;15;7;631;1168;4;675;458;12;8;686;1688;4;732;444;12;9;387;1262;4;434;528;11
07.01.21;13:55:00;1;385;5607;0;2;1;8;6;2;429;7;3;0;2;6;1;478;10;4;0;3;1;0;227;3;5;0;0;0;0;0;0;0;0;6;0;26;23;5;2;594;181;15;7;652;1116;4;703;434;12;8;717;1631;4;767;445;12;9;412;1230;4;460;526;11
07.01.21;13:50:00;1;302;5577;0;2;1;8;6;1;429;7;3;0;2;6;1;482;10;4;0;3;1;0;226;3;5;0;0;0;0;0;0;0;0;6;0;26;23;3;3;182;578;15;7;640;1062;4;685;441;12;8;701;1572;4;753;448;12;9;401;1196;4;449;527;11
07.01.21;13:45:00;1;300;5552;0;2;1;8;6;1;428;7;3;0;2;6;1;480;10;4;0;3;1;0;218;3;5;0;0;0;0;0;0;0;0;6;0;26;23;4;4;181;578;15;7;636;1008;4;682;430;12;8;701;1513;4;762;447;12;9;395;1162;4;450;531;11
07.01.21;13:40:00;1;303;5527;0;2;1;8;6;1;427;7;3;0;2;4;3;450;10;4;0;3;3;0;217;3;5;0;0;0;0;0;0;0;0;6;0;26;23;5;5;181;579;15;7;656;955;4;700;435;12;8;740;1455;4;790;445;12;9;419;1130;4;466;526;11
07.01.21;13:35:00;1;302;5502;0;2;1;8;4;1;429;7;3;0;1;3;3;456;10;4;0;3;1;0;226;3;5;0;0;0;0;0;0;0;0;6;0;26;23;6;5;181;580;15;7;663;900;4;707;445;12;8;735;1393;4;792;447;12;9;428;1095;4;480;539;11
07.01.21;13:30:00;1;312;5476;0;2;2;8;3;4;402;7;3;0;1;6;1;473;10;4;0;3;1;0;226;3;5;0;0;0;0;0;0;0;0;6;0;26;23;5;5;182;580;15;7;671;845;4;721;438;12;8;770;1332;4;822;442;12;9;440;1059;4;486;520;11
07.01.21;13:25:00;1;448;5450;0;2;2;7;6;4;414;7;3;0;1;6;3;458;10;4;0;3;1;0;227;3;5;0;0;0;0;0;0;0;0;6;0;26;23;6;5;182;582;15;7;700;789;4;745;422;12;8;823;1268;4;865;435;12;9;458;1022;4;508;528;11
07.01.21;13:20:00;1;393;5417;0;2;1;7;6;2;420;7;3;0;1;6;1;481;10;4;0;3;1;0;227;3;5;0;0;0;0;0;0;0;0;6;0;26;23;7;4;599;181;15;7;716;731;4;766;415;11;8;838;1199;4;894;426;12;9;477;984;4;525;513;11
07.01.21;13:15:00;1;363;5385;0;2;2;7;6;4;415;7;3;0;1;6;1;471;10;4;0;3;1;0;219;4;5;0;0;0;0;0;0;0;0;6;0;26;23;5;4;181;584;16;7;711;671;4;762;392;11;8;861;1129;4;909;415;11;9;487;944;4;538;502;11
07.01.21;13:10:00;1;326;5354;0;2;1;7;6;2;428;7;3;0;1;6;0;506;10;4;0;3;1;0;230;4;5;0;0;0;0;0;0;0;0;6;0;26;23;6;5;182;586;16;7;717;612;4;772;401;11;8;885;1057;4;940;416;11;9;512;904;4;560;499;11
07.01.21;13:05:00;1;362;5325;0;2;1;7;6;2;430;7;3;0;1;4;1;490;10;4;0;3;3;0;210;4;5;0;0;0;0;0;0;0;0;6;0;26;1;5;4;184;592;16;7;806;553;4;852;392;11;8;1028;984;4;1083;419;11;9;578;861;4;632;495;11
07.01.21;13:00:00;1;587;5295;0;2;1;7;3;6;424;7;3;1;1;3;5;466;10;4;0;3;3;0;219;3;5;0;0;0;0;0;0;0;0;6;0;26;1;5;3;376;603;16;7;965;485;4;1018;386;11;8;1298;898;4;1363;399;10;9;746;812;4;805;492;11
07.01.21;12:55:00;1;388;5230;0;2;0;7;6;4;439;7;3;0;1;6;3;512;10;4;0;3;3;0;209;3;5;0;0;0;0;0;0;0;0;6;0;26;8;4;4;183;609;16;7;1111;405;4;1169;364;10;8;1674;790;4;1752;398;10;9;972;750;4;1040;491;10
07.01.21;12:50:00;1;378;5199;0;2;0;6;6;4;443;7;3;1;1;6;5;499;10;4;1;3;3;1;221;3;5;0;0;0;0;0;0;0;0;6;24;26;1;19;16;488;467;16;7;1028;312;4;1084;358;10;8;1723;650;4;1808;395;10;9;957;670;4;1024;477;10
07.01.21;12:45:00;1;302;5169;0;2;5;6;6;9;452;7;3;0;1;6;5;541;10;4;3;3;3;3;199;3;5;0;0;0;0;0;0;0;0;6;70;24;4;33;31;391;361;16;7;1728;227;4;1797;375;10;8;3411;507;4;3560;387;9;9;2004;590;4;2117;459;10